Satellite-Ground Cal/Val Site Overpasses Predictions

Prediction of Satellite NPP Overpassing Cal/Val Site: Antarctic Dome C

Ground Cal/Val Site Location: Latitude: -75.10, Longitude: 123.35; Satellite-Ground Site NADIR distance within 100 km.

Table of predicted overpasses for the next 14.0 days since TLE Epoch: 9/30/2013
Interval Starting Time Ending Time Minimum Distance Time Minimum Distance (km)
1 10/01/2013 14:55:53 10/01/2013 14:56:21 10/01/2013 14:56:07 26.22
2 10/02/2013 14:37:11 10/02/2013 14:37:28 10/02/2013 14:37:19 80.83
3 10/03/2013 07:38:45 10/03/2013 07:39:13 10/03/2013 07:38:59 33.94
4 10/04/2013 07:20:00 10/04/2013 07:20:19 10/04/2013 07:20:09 76.02
5 10/06/2013 15:02:17 10/06/2013 15:02:39 10/06/2013 15:02:28 63.29
6 10/07/2013 14:43:27 10/07/2013 14:43:52 10/07/2013 14:43:39 46.03
7 10/08/2013 07:45:08 10/08/2013 07:45:29 10/08/2013 07:45:18 69.09
8 10/09/2013 07:26:17 10/09/2013 07:26:44 10/09/2013 07:26:30 38.70
9 10/12/2013 14:49:44 10/12/2013 14:50:13 10/12/2013 14:49:59 10.63
